UA1ZBE-13 Weather Reports


Display with metric or nautical units.
time (UTC)temp
F
wind
direction
speed
MPH
gust
MPH
rain 1hr
in
rain 24hr
in
rain mn
in
humidity
%
barometer
mb
20260510030908 43 0.0 0.0 0.00 0.00 0.00 996.7
20260510025908 43 0.0 0.0 0.00 0.00 0.00 996.7
20260510024908 43 0.0 0.0 0.00 0.00 0.00 996.8
20260510023908 43 0.0 0.0 0.00 0.00 0.00 996.7
20260510022908 43 0.0 0.0 0.00 0.00 0.00 996.9
20260510021907 43 0.0 0.0 0.00 0.00 0.00 996.8
20260510020907 43 0.0 0.0 0.00 0.00 0.00 996.9
20260510015907 43 0.0 0.0 0.00 0.00 0.00 996.9
20260510014907 43 0.0 0.0 0.00 0.00 0.00 997.0
20260510013906 43 0.0 0.0 0.00 0.00 0.00 997.1
20260510012906 43 0.0 0.0 0.00 0.00 0.00 997.2
20260510011906 43 0.0 0.0 0.00 0.00 0.00 997.3
20260510010906 43 0.0 0.0 0.00 0.00 0.00 997.5
20260510005906 43 0.0 0.0 0.00 0.00 0.00 997.4
20260510004905 43 0.0 0.0 0.00 0.00 0.00 997.4
20260510003905 43 0.0 0.0 0.00 0.00 0.00 997.6
20260510002905 43 0.0 0.0 0.00 0.00 0.00 997.8
20260510001905 43 0.0 0.0 0.00 0.00 0.00 997.9
20260510000904 43 0.0 0.0 0.00 0.00 0.00 998.0
20260509235904 43 0.0 0.0 0.00 0.00 0.00 998.2
20260509234904 43 0.0 0.0 0.00 0.00 0.00 998.4
20260509233904 43 0.0 0.0 0.00 0.00 0.00 998.7
20260509232903 43 0.0 0.0 0.00 0.00 0.00 998.9
20260509231903 43 0.0 0.0 0.00 0.00 0.00 999.0
20260509230903 43 0.0 0.0 0.00 0.00 0.00 999.1
20260509225903 43 0.0 0.0 0.00 0.00 0.00 999.2
20260509224903 43 0.0 0.0 0.00 0.00 0.00 999.4
20260509223902 43 0.0 0.0 0.00 0.00 0.00 999.5
20260509222902 43 0.0 0.0 0.00 0.00 0.00 999.6
20260509221902 43 0.0 0.0 0.00 0.00 0.00 999.8
20260509220902 43 0.0 0.0 0.00 0.00 0.00 1000.0
20260509215901 43 0.0 0.0 0.00 0.00 0.00 1000.2
20260509214901 44 0.0 0.0 0.00 0.00 0.00 1000.2
20260509213901 44 0.0 0.0 0.00 0.00 0.00 1000.3
20260509212901 44 0.0 0.0 0.00 0.00 0.00 1000.3
20260509211901 44 0.0 0.0 0.00 0.00 0.00 1000.2
20260509210900 44 0.0 0.0 0.00 0.00 0.00 1000.4
20260509205900 44 0.0 0.0 0.00 0.00 0.00 1000.4
20260509204900 44 0.0 0.0 0.00 0.00 0.00 1000.4
20260509203900 44 0.0 0.0 0.00 0.00 0.00 1000.6
20260509202859 44 0.0 0.0 0.00 0.00 0.00 1000.6
20260509201859 45 0.0 0.0 0.00 0.00 0.00 1000.7
20260509200859 45 0.0 0.0 0.00 0.00 0.00 1000.8
20260509195859 45 0.0 0.0 0.00 0.00 0.00 1000.8
20260509194859 45 0.0 0.0 0.00 0.00 0.00 1001.0
20260509193858 45 0.0 0.0 0.00 0.00 0.00 1000.9
20260509192858 45 0.0 0.0 0.00 0.00 0.00 1000.9
20260509191858 45 0.0 0.0 0.00 0.00 0.00 1000.7
20260509190858 46 0.0 0.0 0.00 0.00 0.00 1000.8
20260509185857 46 0.0 0.0 0.00 0.00 0.00 1001.0
20260509184857 46 0.0 0.0 0.00 0.00 0.00 1001.2
20260509183857 46 0.0 0.0 0.00 0.00 0.00 1001.1
20260509182857 46 0.0 0.0 0.00 0.00 0.00 1001.1
20260509181856 46 0.0 0.0 0.00 0.00 0.00 1001.0
20260509180856 46 0.0 0.0 0.00 0.00 0.00 1001.1
20260509175856 46 0.0 0.0 0.00 0.00 0.00 1001.1
20260509174856 47 0.0 0.0 0.00 0.00 0.00 1001.2
20260509173855 47 0.0 0.0 0.00 0.00 0.00 1001.4
20260509172855 47 0.0 0.0 0.00 0.00 0.00 1001.5
20260509171855 48 0.0 0.0 0.00 0.00 0.00 1001.4
20260509170855 48 0.0 0.0 0.00 0.00 0.00 1001.5
20260509165854 49 0.0 0.0 0.00 0.00 0.00 1001.6
20260509164854 49 0.0 0.0 0.00 0.00 0.00 1001.7
20260509163854 49 0.0 0.0 0.00 0.00 0.00 1001.7
20260509162854 50 0.0 0.0 0.00 0.00 0.00 1001.8
20260509161853 51 0.0 0.0 0.00 0.00 0.00 1002.0
20260509160853 52 0.0 0.0 0.00 0.00 0.00 1002.0
20260509155853 53 0.0 0.0 0.00 0.00 0.00 1002.2
20260509154853 59 0.0 0.0 0.00 0.00 0.00 1002.3
20260509153852 63 0.0 0.0 0.00 0.00 0.00 1002.5
20260509152852 64 0.0 0.0 0.00 0.00 0.00 1002.4
20260509151852 54 0.0 0.0 0.00 0.00 0.00 1002.5
20260509150852 55 0.0 0.0 0.00 0.00 0.00 1002.7
20260509145852 65 0.0 0.0 0.00 0.00 0.00 1002.8
20260509144851 60 0.0 0.0 0.00 0.00 0.00 1002.8
20260509143851 57 0.0 0.0 0.00 0.00 0.00 1002.9
20260509142851 55 0.0 0.0 0.00 0.00 0.00 1002.9
20260509141851 55 0.0 0.0 0.00 0.00 0.00 1003.0
20260509140850 53 0.0 0.0 0.00 0.00 0.00 1003.0
20260509135850 53 0.0 0.0 0.00 0.00 0.00 1003.1
20260509134850 52 0.0 0.0 0.00 0.00 0.00 1003.2
20260509133850 53 0.0 0.0 0.00 0.00 0.00 1003.5
20260509132849 53 0.0 0.0 0.00 0.00 0.00 1003.6
20260509131849 53 0.0 0.0 0.00 0.00 0.00 1003.6
20260509130849 53 0.0 0.0 0.00 0.00 0.00 1003.8
20260509125849 54 0.0 0.0 0.00 0.00 0.00 1003.9
20260509124848 55 0.0 0.0 0.00 0.00 0.00 1004.1
20260509123848 55 0.0 0.0 0.00 0.00 0.00 1004.2
20260509122848 58 0.0 0.0 0.00 0.00 0.00 1004.2
20260509121848 58 0.0 0.0 0.00 0.00 0.00 1004.4
20260509120848 57 0.0 0.0 0.00 0.00 0.00 1004.4
20260509115847 57 0.0 0.0 0.00 0.00 0.00 1004.5
20260509114847 57 0.0 0.0 0.00 0.00 0.00 1004.7
20260509113847 55 0.0 0.0 0.00 0.00 0.00 1004.6
20260509112847 56 0.0 0.0 0.00 0.00 0.00 1004.7
20260509111846 55 0.0 0.0 0.00 0.00 0.00 1004.6
20260509110846 55 0.0 0.0 0.00 0.00 0.00 1004.7
20260509105846 55 0.0 0.0 0.00 0.00 0.00 1004.8
20260509104846 54 0.0 0.0 0.00 0.00 0.00 1004.9
20260509103846 54 0.0 0.0 0.00 0.00 0.00 1005.0
20260509102845 53 0.0 0.0 0.00 0.00 0.00 1004.9
20260509101845 53 0.0 0.0 0.00 0.00 0.00 1005.1
20260509100845 53 0.0 0.0 0.00 0.00 0.00 1005.0
20260509095845 52 0.0 0.0 0.00 0.00 0.00 1005.1
20260509094844 50 0.0 0.0 0.00 0.00 0.00 1005.1
20260509093844 50 0.0 0.0 0.00 0.00 0.00 1005.1
20260509092844 49 0.0 0.0 0.00 0.00 0.00 1005.0
20260509091844 49 0.0 0.0 0.00 0.00 0.00 1004.9
20260509090843 47 0.0 0.0 0.00 0.00 0.00 1004.8
20260509085843 47 0.0 0.0 0.00 0.00 0.00 1004.7
20260509084843 46 0.0 0.0 0.00 0.00 0.00 1004.8
20260509083843 45 0.0 0.0 0.00 0.00 0.00 1004.7
20260509082843 45 0.0 0.0 0.00 0.00 0.00 1004.8
20260509081842 44 0.0 0.0 0.00 0.00 0.00 1004.8
20260509080842 44 0.0 0.0 0.00 0.00 0.00 1004.9
20260509075842 43 0.0 0.0 0.00 0.00 0.00 1004.8
20260509074842 43 0.0 0.0 0.00 0.00 0.00 1004.8
20260509073841 42 0.0 0.0 0.00 0.00 0.00 1004.7
20260509072841 42 0.0 0.0 0.00 0.00 0.00 1004.7
20260509071841 42 0.0 0.0 0.00 0.00 0.00 1004.8
20260509070841 41 0.0 0.0 0.00 0.00 0.00 1004.7
20260509065841 40 0.0 0.0 0.00 0.00 0.00 1004.7
20260509064840 40 0.0 0.0 0.00 0.00 0.00 1004.7
20260509063840 40 0.0 0.0 0.00 0.00 0.00 1004.7
20260509062840 40 0.0 0.0 0.00 0.00 0.00 1004.7
20260509061840 39 0.0 0.0 0.00 0.00 0.00 1004.6
20260509060839 39 0.0 0.0 0.00 0.00 0.00 1004.6
20260509055839 39 0.0 0.0 0.00 0.00 0.00 1004.6
20260509054839 39 0.0 0.0 0.00 0.00 0.00 1004.5
20260509053839 38 0.0 0.0 0.00 0.00 0.00 1004.5
20260509052838 38 0.0 0.0 0.00 0.00 0.00 1004.5
20260509051838 38 0.0 0.0 0.00 0.00 0.00 1004.6
20260509050838 37 0.0 0.0 0.00 0.00 0.00 1004.5
20260509045838 37 0.0 0.0 0.00 0.00 0.00 1004.6
20260509044837 37 0.0 0.0 0.00 0.00 0.00 1004.7
20260509043837 37 0.0 0.0 0.00 0.00 0.00 1004.5
20260509042837 36 0.0 0.0 0.00 0.00 0.00 1004.6
20260509041837 36 0.0 0.0 0.00 0.00 0.00 1004.4
20260509040837 36 0.0 0.0 0.00 0.00 0.00 1004.4
20260509035836 35 0.0 0.0 0.00 0.00 0.00 1004.4
20260509034836 35 0.0 0.0 0.00 0.00 0.00 1004.5
20260509033836 35 0.0 0.0 0.00 0.00 0.00 1004.4
20260509032836 35 0.0 0.0 0.00 0.00 0.00 1004.3
20260509031835 34 0.0 0.0 0.00 0.00 0.00 1004.3